| time (UTC) | temp C | wind direction | speed KPH | gust KPH | rain 1hr cm | rain 24hr cm | rain mn cm | humidity % | barometer mb |
| 20260508065018 | 11 | 212 | 0.0 | 0.0 | 0.00 | 0.00 | 0.00 | 95 | 1013.1 |
| 20260508064515 | 11 | 212 | 0.0 | 0.0 | 0.00 | 0.00 | 0.00 | 95 | 1012.8 |
| 20260508064013 | 11 | 212 | 0.0 | 0.0 | 0.00 | 0.00 | 0.00 | 95 | 1013.3 |
| 20260508063510 | 11 | 213 | 0.0 | 0.0 | 0.00 | 0.00 | 0.00 | 95 | 1012.6 |
| 20260508063007 | 11 | 213 | 0.0 | 0.0 | 0.00 | 0.00 | 0.00 | 95 | 1013.2 |
| 20260508062505 | 11 | 213 | 0.0 | 0.0 | 0.00 | 0.00 | 0.00 | 95 | 1012.8 |
| 20260508062001 | 11 | 213 | 0.0 | 0.0 | 0.00 | 0.00 | 0.00 | 95 | 1012.7 |
| 20260508061500 | 12 | 214 | 0.0 | 0.0 | 0.00 | 0.00 | 0.00 | 95 | 1013.2 |
| 20260508060955 | 11 | 212 | 0.0 | 0.0 | 0.00 | 0.00 | 0.00 | 95 | 1012.7 |
| 20260508060453 | 11 | 212 | 0.0 | 0.0 | 0.00 | 0.00 | 0.00 | 95 | 1013.2 |
| 20260508055949 | 11 | 212 | 0.0 | 0.0 | 0.00 | 0.00 | 0.00 | 95 | 1013.0 |
| 20260508055446 | 12 | 212 | 0.0 | 0.0 | 0.00 | 0.00 | 0.00 | 95 | 1013.0 |
| 20260508054942 | 12 | 212 | 0.0 | 0.0 | 0.00 | 0.00 | 0.00 | 95 | 1013.1 |
| 20260508054439 | 12 | 216 | 0.0 | 0.0 | 0.00 | 0.00 | 0.00 | 95 | 1013.0 |
| 20260508053936 | 11 | 214 | 0.0 | 0.0 | 0.00 | 0.00 | 0.00 | 95 | 1012.7 |
| 20260508053433 | 11 | 213 | 0.0 | 0.0 | 0.00 | 0.00 | 0.00 | 95 | 1013.0 |
| 20260508052931 | 11 | 213 | 0.0 | 0.0 | 0.00 | 0.00 | 0.00 | 95 | 1013.0 |
| 20260508052428 | 12 | 213 | 0.0 | 0.0 | 0.00 | 0.00 | 0.00 | 95 | 1013.1 |
| 20260508051924 | 12 | 213 | 0.0 | 0.0 | 0.00 | 0.00 | 0.00 | 95 | 1012.7 |
| 20260508051420 | 12 | 213 | 0.0 | 0.0 | 0.00 | 0.00 | 0.00 | 95 | 1012.6 |
| 20260508050916 | 12 | 213 | 0.0 | 0.0 | 0.00 | 0.00 | 0.00 | 95 | 1012.6 |
| 20260508050413 | 12 | 213 | 0.0 | 0.0 | 0.00 | 0.00 | 0.00 | 95 | 1012.6 |
| 20260508045909 | 12 | 213 | 0.0 | 0.0 | 0.00 | 0.00 | 0.00 | 95 | 1012.8 |
| 20260508045407 | 12 | 213 | 0.0 | 0.0 | 0.00 | 0.00 | 0.00 | 95 | 1012.8 |
| 20260508044904 | 12 | 213 | 0.0 | 0.0 | 0.00 | 0.00 | 0.00 | 95 | 1012.7 |
| 20260508044401 | 12 | 213 | 0.0 | 0.0 | 0.00 | 0.00 | 0.00 | 95 | 1012.7 |
| 20260508043857 | 12 | 213 | 0.0 | 0.0 | 0.00 | 0.00 | 0.00 | 95 | 1012.5 |
| 20260508043354 | 12 | 213 | 0.0 | 0.0 | 0.00 | 0.00 | 0.00 | 95 | 1012.5 |
| 20260508042851 | 12 | 214 | 0.0 | 0.0 | 0.00 | 0.00 | 0.00 | 95 | 1012.8 |
| 20260508042349 | 12 | 214 | 0.0 | 0.0 | 0.00 | 0.00 | 0.00 | 95 | 1012.5 |
| 20260508041845 | 12 | 214 | 0.0 | 0.0 | 0.00 | 0.00 | 0.00 | 95 | 1012.6 |
| 20260508041341 | 12 | 212 | 0.0 | 0.0 | 0.00 | 0.00 | 0.00 | 95 | 1012.6 |
| 20260508040837 | 12 | 220 | 0.0 | 0.0 | 0.00 | 0.00 | 0.00 | 95 | 1012.8 |
| 20260508040335 | 12 | 214 | 0.0 | 0.0 | 0.00 | 0.00 | 0.00 | 95 | 1012.6 |
| 20260508035832 | 12 | 190 | 0.0 | 0.0 | 0.00 | 4.83 | 4.83 | 95 | 1012.7 |
| 20260508035329 | 12 | 209 | 0.0 | 0.0 | 0.00 | 4.83 | 4.83 | 95 | 1012.8 |
| 20260508034826 | 12 | 220 | 0.0 | 0.0 | 0.00 | 4.83 | 4.83 | 95 | 1012.5 |
| 20260508034324 | 12 | 216 | 0.0 | 0.0 | 0.00 | 4.83 | 4.83 | 95 | 1012.4 |
| 20260508033820 | 12 | 225 | 0.0 | 0.0 | 0.00 | 4.83 | 4.83 | 95 | 1012.2 |
| 20260508033319 | 12 | 218 | 0.0 | 0.0 | 0.00 | 4.83 | 4.83 | 95 | 1012.2 |
| 20260508032816 | 12 | 210 | 0.0 | 0.0 | 0.00 | 4.83 | 4.83 | 95 | 1011.9 |
| 20260508032313 | 12 | 210 | 0.0 | 0.0 | 0.00 | 4.83 | 4.83 | 95 | 1011.8 |
| 20260508031810 | 12 | 211 | 0.0 | 0.0 | 0.00 | 4.83 | 4.83 | 95 | 1011.9 |
| 20260508031307 | 12 | 214 | 0.0 | 0.0 | 0.00 | 4.83 | 4.83 | 95 | 1012.1 |
| 20260508030803 | 12 | 176 | 0.0 | 0.0 | 0.00 | 4.83 | 4.83 | 95 | 1011.8 |
| 20260508030300 | 12 | 211 | 0.0 | 0.0 | 0.00 | 4.83 | 4.83 | 95 | 1011.9 |
| 20260508025757 | 12 | 211 | 0.0 | 0.0 | 0.00 | 4.83 | 4.83 | 95 | 1011.9 |
| 20260508025254 | 12 | 211 | 0.0 | 0.0 | 0.00 | 4.83 | 4.83 | 95 | 1011.6 |
| 20260508024750 | 12 | 197 | 0.0 | 0.0 | 0.00 | 4.83 | 4.83 | 95 | 1011.7 |
| 20260508024247 | 12 | 197 | 0.0 | 0.0 | 0.00 | 4.83 | 4.83 | 95 | 1011.7 |
| 20260508023744 | 12 | 197 | 0.0 | 0.0 | 0.00 | 4.83 | 4.83 | 95 | 1011.8 |
| 20260508023241 | -17 | 0.0 | 0.0 | 0.00 | 0.00 | 0.00 | 1011.6 | ||
| 20260508022737 | 12 | 214 | 0.0 | 0.0 | 0.00 | 4.83 | 4.83 | 95 | 1011.6 |
| 20260508022234 | 12 | 214 | 0.0 | 0.0 | 0.00 | 4.83 | 4.83 | 95 | 1011.5 |
| 20260508021731 | 12 | 214 | 0.0 | 0.0 | 0.00 | 4.83 | 4.83 | 95 | 1011.4 |
| 20260508021226 | 12 | 215 | 0.0 | 0.0 | 0.00 | 4.83 | 4.83 | 95 | 1011.3 |
| 20260508020723 | 12 | 234 | 1.6 | 1.6 | 0.00 | 4.83 | 4.83 | 95 | 1011.3 |
| 20260508020220 | 12 | 151 | 1.6 | 1.6 | 0.00 | 4.83 | 4.83 | 95 | 1011.0 |
| 20260508015718 | 12 | 151 | 1.6 | 1.6 | 0.00 | 4.83 | 4.83 | 95 | 1011.1 |
| 20260508015215 | -17 | 0.0 | 0.0 | 0.00 | 0.00 | 0.00 | 1011.3 | ||
| 20260508014711 | -17 | 0.0 | 0.0 | 0.00 | 0.00 | 0.00 | 1011.1 | ||
| 20260508014208 | -17 | 0.0 | 0.0 | 0.00 | 0.00 | 0.00 | 1011.3 | ||
| 20260508013704 | -17 | 0.0 | 0.0 | 0.00 | 0.00 | 0.00 | 1011.0 | ||
| 20260508013201 | -17 | 0.0 | 0.0 | 0.00 | 0.00 | 0.00 | 1011.0 | ||
| 20260508012658 | 12 | 191 | 0.0 | 0.0 | 0.00 | 4.83 | 4.83 | 95 | 1010.8 |
| 20260508012155 | 12 | 191 | 0.0 | 0.0 | 0.00 | 4.83 | 4.83 | 95 | 1010.8 |
| 20260508011653 | 12 | 167 | 0.0 | 1.6 | 0.00 | 4.83 | 4.83 | 95 | 1010.7 |
| 20260508011150 | 12 | 142 | 0.0 | 0.0 | 0.00 | 4.83 | 4.83 | 95 | 1010.4 |
| 20260508010647 | 12 | 184 | 0.0 | 0.0 | 0.00 | 4.83 | 4.83 | 95 | 1010.3 |
| 20260508010145 | 12 | 88 | 1.6 | 3.2 | 0.00 | 4.83 | 4.83 | 95 | 1010.2 |
| 20260508005642 | 12 | 188 | 0.0 | 0.0 | 0.00 | 4.83 | 4.83 | 95 | 1010.5 |
| 20260508005138 | 12 | 194 | 0.0 | 0.0 | 0.18 | 4.83 | 4.83 | 95 | 1010.3 |
| 20260508004634 | 12 | 157 | 1.6 | 1.6 | 0.18 | 4.83 | 4.83 | 95 | 1010.2 |
| 20260508004131 | 12 | 219 | 0.0 | 0.0 | 0.00 | 4.80 | 4.80 | 95 | 1010.6 |
| 20260508003627 | 12 | 184 | 0.0 | 0.0 | 0.30 | 4.80 | 4.80 | 95 | 1010.5 |
| 20260508003125 | 12 | 190 | 0.0 | 0.0 | 0.71 | 4.80 | 4.80 | 95 | 1010.6 |
| 20260508002621 | 12 | 190 | 0.0 | 0.0 | 1.19 | 4.75 | 4.75 | 95 | 1010.3 |
| 20260508002120 | 12 | 106 | 3.2 | 3.2 | 1.80 | 4.65 | 4.65 | 95 | 1010.5 |
| 20260508001614 | 12 | 210 | 0.0 | 0.0 | 3.00 | 4.52 | 4.52 | 95 | 1010.9 |
| 20260508001110 | 12 | 210 | 0.0 | 0.0 | 2.16 | 4.34 | 4.34 | 94 | 1010.3 |
| 20260508000606 | 12 | 152 | 1.6 | 3.2 | 0.30 | 4.01 | 4.01 | 94 | 1010.2 |
| 20260508000104 | 12 | 228 | 1.6 | 1.6 | 0.13 | 3.99 | 3.99 | 94 | 1009.8 |
| 20260507235601 | 12 | 125 | 1.6 | 1.6 | 0.00 | 3.96 | 3.96 | 94 | 1009.3 |
| 20260507235058 | 12 | 189 | 0.0 | 0.0 | 0.00 | 3.96 | 3.96 | 94 | 1008.9 |
| 20260507234554 | 12 | 134 | 1.6 | 1.6 | 0.00 | 3.96 | 3.96 | 94 | 1009.1 |
| 20260507234051 | 12 | 175 | 1.6 | 1.6 | 0.00 | 3.96 | 3.96 | 94 | 1009.0 |
| 20260507233547 | 13 | 184 | 1.6 | 3.2 | 0.00 | 3.96 | 3.96 | 94 | 1009.0 |
| 20260507233047 | 13 | 204 | 0.0 | 0.0 | 0.00 | 3.96 | 3.96 | 93 | 1009.3 |
| 20260507232542 | 12 | 168 | 0.0 | 1.6 | 0.00 | 3.96 | 3.96 | 93 | 1009.5 |
| 20260507232039 | 13 | 94 | 6.4 | 8.0 | 0.00 | 3.96 | 3.96 | 93 | 1009.3 |
| 20260507231536 | 13 | 162 | 1.6 | 1.6 | 0.00 | 3.96 | 3.96 | 93 | 1009.7 |
| 20260507231033 | 13 | 103 | 3.2 | 3.2 | 0.00 | 3.96 | 3.96 | 93 | 1009.2 |
| 20260507230530 | 13 | 143 | 3.2 | 3.2 | 0.00 | 3.96 | 3.96 | 93 | 1009.0 |
| 20260507230027 | 13 | 171 | 0.0 | 0.0 | 0.00 | 3.96 | 3.96 | 93 | 1009.1 |
| 20260507225521 | 13 | 115 | 1.6 | 3.2 | 0.00 | 3.96 | 3.96 | 93 | 1009.1 |
| 20260507225018 | 13 | 281 | 1.6 | 3.2 | 0.00 | 3.96 | 3.96 | 93 | 1009.2 |
| 20260507224514 | 13 | 202 | 0.0 | 0.0 | 0.00 | 3.96 | 3.96 | 93 | 1008.9 |
| 20260507224010 | 13 | 69 | 4.8 | 4.8 | 0.00 | 3.96 | 3.96 | 93 | 1008.9 |
| 20260507223507 | 13 | 206 | 1.6 | 1.6 | 0.00 | 3.96 | 3.96 | 93 | 1009.0 |
| 20260507223004 | 13 | 83 | 6.4 | 9.7 | 0.00 | 3.96 | 3.96 | 92 | 1008.8 |
| 20260507222501 | 13 | 126 | 8.0 | 9.7 | 0.00 | 3.96 | 3.96 | 93 | 1008.8 |
| 20260507221957 | 13 | 85 | 4.8 | 8.0 | 0.00 | 3.96 | 3.96 | 93 | 1008.9 |
| 20260507221454 | 13 | 61 | 4.8 | 4.8 | 0.00 | 3.96 | 3.96 | 93 | 1008.6 |
| 20260507220950 | 13 | 178 | 0.0 | 0.0 | 0.00 | 3.96 | 3.96 | 94 | 1008.8 |
| 20260507220448 | 12 | 225 | 1.6 | 1.6 | 0.00 | 3.96 | 3.96 | 93 | 1008.7 |
| 20260507215944 | 12 | 191 | 0.0 | 0.0 | 0.00 | 3.96 | 3.96 | 94 | 1008.9 |
| 20260507215441 | 12 | 73 | 3.2 | 3.2 | 0.00 | 3.96 | 3.96 | 94 | 1008.8 |
| 20260507214939 | 12 | 70 | 3.2 | 4.8 | 0.00 | 3.96 | 3.96 | 94 | 1009.4 |
| 20260507214436 | 12 | 72 | 3.2 | 4.8 | 0.00 | 3.96 | 3.96 | 94 | 1008.9 |
| 20260507213932 | 12 | 76 | 4.8 | 9.7 | 0.00 | 3.96 | 3.96 | 95 | 1008.9 |
| 20260507213428 | 12 | 39 | 6.4 | 9.7 | 0.00 | 3.96 | 3.96 | 95 | 1008.5 |
| 20260507212925 | 12 | 108 | 3.2 | 4.8 | 0.00 | 3.96 | 3.96 | 95 | 1008.7 |
| 20260507212421 | 12 | 182 | 1.6 | 3.2 | 0.00 | 3.96 | 3.96 | 95 | 1008.7 |
| 20260507211918 | 12 | 314 | 4.8 | 8.0 | 0.00 | 3.96 | 3.96 | 95 | 1008.8 |
| 20260507211415 | 13 | 106 | 3.2 | 3.2 | 0.00 | 3.96 | 3.96 | 95 | 1008.5 |
| 20260507210911 | 13 | 184 | 1.6 | 3.2 | 0.00 | 3.96 | 3.96 | 95 | 1008.3 |
| 20260507210408 | 13 | 322 | 6.4 | 9.7 | 0.00 | 3.96 | 3.96 | 95 | 1008.3 |
| 20260507205905 | 13 | 128 | 3.2 | 3.2 | 0.00 | 3.96 | 3.96 | 95 | 1008.3 |
| 20260507205403 | 13 | 333 | 8.0 | 12.9 | 0.00 | 3.96 | 3.96 | 95 | 1008.1 |
| 20260507204858 | 13 | 72 | 4.8 | 8.0 | 0.00 | 3.96 | 3.96 | 95 | 1008.1 |
| 20260507204355 | 13 | 46 | 8.0 | 11.3 | 0.00 | 3.96 | 3.96 | 95 | 1008.0 |
| 20260507203853 | 13 | 300 | 8.0 | 11.3 | 0.00 | 3.96 | 3.96 | 95 | 1008.0 |
| 20260507203351 | 14 | 334 | 4.8 | 8.0 | 0.00 | 3.96 | 3.96 | 95 | 1008.0 |
| 20260507202846 | 14 | 108 | 6.4 | 11.3 | 0.00 | 3.96 | 3.96 | 95 | 1007.6 |
| 20260507202343 | 13 | 135 | 1.6 | 3.2 | 0.00 | 3.96 | 3.96 | 95 | 1007.6 |
| 20260507201838 | 13 | 181 | 1.6 | 1.6 | 0.00 | 3.96 | 3.96 | 95 | 1007.8 |
| 20260507201334 | 13 | 57 | 4.8 | 4.8 | 0.00 | 3.96 | 3.96 | 95 | 1008.1 |
| 20260507200831 | 13 | 209 | 3.2 | 8.0 | 0.00 | 3.96 | 3.96 | 95 | 1007.9 |
| 20260507200327 | 14 | 273 | 4.8 | 4.8 | 0.00 | 3.96 | 3.96 | 95 | 1008.3 |
| 20260507195823 | 14 | 33 | 4.8 | 4.8 | 0.00 | 3.96 | 3.96 | 95 | 1007.9 |
| 20260507195320 | 14 | 23 | 6.4 | 9.7 | 0.00 | 3.96 | 3.96 | 95 | 1007.9 |
| 20260507194818 | 14 | 340 | 3.2 | 4.8 | 0.00 | 3.96 | 3.96 | 95 | 1008.0 |
| 20260507194314 | 14 | 323 | 8.0 | 9.7 | 0.00 | 3.96 | 3.96 | 95 | 1007.5 |
| 20260507193810 | 14 | 326 | 1.6 | 4.8 | 0.00 | 3.96 | 3.96 | 95 | 1007.7 |
| 20260507193308 | 14 | 132 | 1.6 | 3.2 | 0.18 | 3.96 | 3.96 | 95 | 1007.7 |
| 20260507192803 | 15 | 263 | 3.2 | 4.8 | 1.55 | 3.96 | 3.96 | 95 | 1007.8 |
| 20260507192300 | 15 | 116 | 8.0 | 9.7 | 1.50 | 3.94 | 3.94 | 95 | 1007.7 |
| 20260507191756 | 15 | 72 | 3.2 | 3.2 | 0.30 | 3.71 | 3.71 | 95 | 1007.7 |
| 20260507191253 | 15 | 271 | 3.2 | 8.0 | 0.18 | 3.68 | 3.68 | 95 | 1007.8 |
| 20260507190750 | 15 | 318 | 11.3 | 12.9 | 0.00 | 3.66 | 3.66 | 95 | 1007.7 |
| 20260507190249 | 15 | 299 | 4.8 | 4.8 | 0.00 | 3.66 | 3.66 | 95 | 1007.9 |
| 20260507185747 | 15 | 309 | 4.8 | 4.8 | 0.00 | 3.66 | 3.66 | 95 | 1007.4 |
| 20260507185243 | 15 | 149 | 8.0 | 9.7 | 0.00 | 3.66 | 3.66 | 95 | 1007.4 |
| 20260507184741 | 16 | 55 | 6.4 | 9.7 | 0.00 | 3.66 | 3.66 | 95 | 1006.7 |
| 20260507184239 | 16 | 342 | 8.0 | 9.7 | 0.00 | 3.66 | 3.66 | 95 | 1007.2 |
| 20260507183735 | 16 | 196 | 0.0 | 1.6 | 0.00 | 3.66 | 3.66 | 95 | 1007.4 |
| 20260507183232 | 17 | 303 | 3.2 | 3.2 | 0.00 | 3.66 | 3.66 | 95 | 1007.5 |
| 20260507182729 | 17 | 145 | 4.8 | 8.0 | 0.00 | 3.66 | 3.66 | 95 | 1007.8 |
| 20260507182224 | 18 | 313 | 8.0 | 11.3 | 0.00 | 3.66 | 3.66 | 95 | 1007.5 |
| 20260507181721 | 18 | 201 | 1.6 | 1.6 | 0.00 | 3.66 | 3.66 | 95 | 1006.7 |
| 20260507181218 | 20 | 324 | 9.7 | 14.5 | 0.00 | 3.66 | 3.66 | 95 | 1006.6 |
| 20260507180714 | 21 | 208 | 0.0 | 0.0 | 0.00 | 3.66 | 3.66 | 95 | 1007.0 |
| 20260507180212 | 20 | 210 | 0.0 | 0.0 | 0.00 | 3.66 | 3.66 | 95 | 1006.7 |
| 20260507175707 | 21 | 226 | 1.6 | 3.2 | 0.00 | 3.66 | 3.66 | 95 | 1007.1 |
| 20260507175204 | 20 | 220 | 1.6 | 1.6 | 0.00 | 3.66 | 3.66 | 95 | 1007.1 |
| 20260507174702 | 20 | 213 | 1.6 | 1.6 | 0.00 | 3.66 | 3.66 | 95 | 1007.3 |
| 20260507174159 | 20 | 213 | 1.6 | 1.6 | 0.00 | 3.66 | 3.66 | 95 | 1007.3 |
| 20260507173656 | 20 | 220 | 0.0 | 1.6 | 0.00 | 3.66 | 3.66 | 95 | 1007.4 |
| 20260507173154 | 20 | 210 | 0.0 | 1.6 | 0.00 | 3.66 | 3.66 | 95 | 1007.1 |
| 20260507172650 | 20 | 225 | 1.6 | 3.2 | 0.00 | 3.66 | 3.66 | 95 | 1007.2 |
| 20260507172147 | 20 | 209 | 0.0 | 0.0 | 0.00 | 3.66 | 3.66 | 95 | 1006.9 |
| 20260507171647 | 20 | 214 | 1.6 | 1.6 | 0.00 | 3.66 | 3.66 | 95 | 1006.7 |
| 20260507171144 | 20 | 205 | 0.0 | 0.0 | 0.00 | 3.66 | 3.66 | 95 | 1006.9 |
| 20260507170641 | 20 | 190 | 0.0 | 1.6 | 0.00 | 3.66 | 3.66 | 95 | 1007.0 |
| 20260507170139 | 20 | 212 | 0.0 | 0.0 | 0.00 | 3.66 | 3.66 | 95 | 1006.9 |
| 20260507165634 | 20 | 224 | 0.0 | 0.0 | 0.00 | 3.66 | 3.66 | 95 | 1006.7 |
| 20260507165131 | 20 | 187 | 0.0 | 0.0 | 0.13 | 3.66 | 3.66 | 95 | 1007.1 |
| 20260507164627 | 20 | 205 | 0.0 | 0.0 | 0.13 | 3.66 | 3.66 | 95 | 1007.1 |
| 20260507164124 | 20 | 206 | 0.0 | 0.0 | 0.00 | 3.63 | 3.63 | 95 | 1007.6 |
| 20260507163621 | 20 | 208 | 0.0 | 0.0 | 0.00 | 3.63 | 3.63 | 95 | 1007.5 |
| 20260507163119 | 20 | 220 | 0.0 | 1.6 | 0.00 | 3.63 | 3.63 | 95 | 1007.7 |
| 20260507162614 | 20 | 220 | 0.0 | 0.0 | 0.00 | 3.63 | 3.63 | 95 | 1007.9 |
| 20260507162111 | 20 | 211 | 1.6 | 1.6 | 0.00 | 3.63 | 3.63 | 95 | 1008.0 |
| 20260507161607 | 20 | 227 | 1.6 | 3.2 | 0.00 | 3.63 | 3.63 | 95 | 1008.4 |
| 20260507161104 | 20 | 216 | 0.0 | 0.0 | 0.00 | 3.63 | 3.63 | 95 | 1008.4 |
| 20260507160600 | 20 | 218 | 0.0 | 1.6 | 0.00 | 3.63 | 3.63 | 95 | 1008.5 |
| 20260507160056 | 20 | 250 | 0.0 | 1.6 | 0.00 | 3.63 | 3.63 | 95 | 1008.6 |
| 20260507155552 | 20 | 216 | 1.6 | 1.6 | 0.00 | 3.63 | 3.63 | 95 | 1008.9 |
| 20260507155049 | 20 | 207 | 0.0 | 0.0 | 0.00 | 3.63 | 3.63 | 95 | 1008.5 |
| 20260507154546 | 20 | 211 | 0.0 | 0.0 | 0.00 | 3.63 | 3.63 | 95 | 1008.3 |
| 20260507154043 | 20 | 211 | 0.0 | 0.0 | 0.00 | 3.63 | 3.63 | 95 | 1007.9 |
| 20260507153540 | 20 | 210 | 0.0 | 0.0 | 0.00 | 3.63 | 3.63 | 95 | 1007.7 |
| 20260507153036 | 20 | 188 | 0.0 | 0.0 | 0.00 | 3.63 | 3.63 | 95 | 1007.7 |
| 20260507152532 | 20 | 212 | 0.0 | 0.0 | 0.00 | 3.63 | 3.63 | 95 | 1008.2 |
| 20260507152029 | 20 | 209 | 0.0 | 0.0 | 0.00 | 3.63 | 3.63 | 95 | 1008.2 |
| 20260507151525 | 19 | 209 | 0.0 | 0.0 | 0.18 | 3.63 | 3.63 | 95 | 1007.9 |
| 20260507151022 | 19 | 219 | 0.0 | 1.6 | 0.36 | 3.63 | 3.63 | 95 | 1007.9 |
| 20260507150519 | 19 | 209 | 0.0 | 0.0 | 0.13 | 3.58 | 3.58 | 95 | 1008.2 |
| 20260507150015 | 19 | 231 | 1.6 | 1.6 | 0.43 | 3.58 | 3.58 | 95 | 1008.3 |
| 20260507145510 | 19 | 219 | 1.6 | 3.2 | 0.48 | 3.56 | 3.56 | 95 | 1008.5 |
| 20260507145009 | 19 | 199 | 0.0 | 0.0 | 0.79 | 3.51 | 3.51 | 95 | 1008.4 |
| 20260507144505 | 19 | 243 | 3.2 | 4.8 | 1.19 | 3.48 | 3.48 | 95 | 1008.6 |
| 20260507144002 | 19 | 215 | 0.0 | 0.0 | 1.68 | 3.38 | 3.38 | 95 | 1008.7 |
| 20260507143459 | 19 | 208 | 1.6 | 1.6 | 1.55 | 3.23 | 3.23 | 95 | 1008.8 |
| 20260507142956 | 19 | 212 | 0.0 | 0.0 | 2.77 | 3.10 | 3.10 | 95 | 1008.6 |
| 20260507142452 | 19 | 204 | 0.0 | 0.0 | 2.11 | 2.87 | 2.87 | 95 | 1008.4 |
| 20260507141949 | 19 | 209 | 0.0 | 1.6 | 1.19 | 2.64 | 2.64 | 95 | 1008.7 |
| 20260507141445 | 19 | 214 | 1.6 | 1.6 | 1.98 | 2.51 | 2.51 | 95 | 1008.7 |
| 20260507140942 | 19 | 228 | 0.0 | 1.6 | 3.35 | 2.44 | 2.44 | 95 | 1009.0 |
| 20260507140438 | 19 | 228 | 1.6 | 1.6 | 2.59 | 2.18 | 2.18 | 95 | 1009.0 |
| 20260507135936 | 19 | 194 | 0.0 | 1.6 | 0.71 | 1.88 | 1.88 | 95 | 1009.1 |
| 20260507135433 | 19 | 214 | 0.0 | 0.0 | 0.18 | 1.75 | 1.75 | 95 | 1008.9 |
| 20260507134930 | 19 | 222 | 0.0 | 1.6 | 0.18 | 1.75 | 1.75 | 95 | 1008.9 |
| 20260507134426 | 19 | 206 | 0.0 | 0.0 | 0.00 | 1.73 | 1.73 | 95 | 1008.9 |
| 20260507133922 | 19 | 202 | 0.0 | 0.0 | 0.00 | 1.73 | 1.73 | 95 | 1008.7 |
| 20260507133418 | 19 | 215 | 0.0 | 1.6 | 0.00 | 1.73 | 1.73 | 95 | 1008.9 |
| 20260507132911 | 20 | 211 | 0.0 | 1.6 | 0.00 | 1.73 | 1.73 | 95 | 1008.9 |
| 20260507132407 | 20 | 205 | 0.0 | 0.0 | 0.00 | 1.73 | 1.73 | 95 | 1009.0 |
| 20260507131906 | 20 | 205 | 0.0 | 0.0 | 0.00 | 1.73 | 1.73 | 95 | 1008.8 |
| 20260507131401 | 20 | 208 | 0.0 | 0.0 | 0.00 | 1.73 | 1.73 | 95 | 1009.0 |
| 20260507130858 | 20 | 211 | 0.0 | 0.0 | 0.00 | 1.73 | 1.73 | 95 | 1009.0 |
| 20260507130354 | 20 | 210 | 0.0 | 0.0 | 0.00 | 1.73 | 1.73 | 95 | 1008.6 |
| 20260507125854 | 19 | 206 | 0.0 | 0.0 | 0.00 | 1.73 | 1.73 | 95 | 1008.6 |
| 20260507125350 | 19 | 210 | 0.0 | 0.0 | 0.00 | 1.73 | 1.73 | 95 | 1008.6 |
| 20260507124848 | 19 | 336 | 0.0 | 1.6 | 0.00 | 1.73 | 1.73 | 95 | 1008.8 |
| 20260507124344 | 19 | 210 | 0.0 | 0.0 | 0.00 | 1.73 | 1.73 | 95 | 1008.8 |
| 20260507123843 | 19 | 206 | 0.0 | 0.0 | 0.00 | 1.73 | 1.73 | 95 | 1008.7 |
| 20260507123339 | 19 | 220 | 0.0 | 0.0 | 0.00 | 1.73 | 1.73 | 95 | 1008.8 |
| 20260507122836 | 19 | 126 | 0.0 | 0.0 | 0.00 | 1.73 | 1.73 | 95 | 1009.0 |
| 20260507122331 | 19 | 206 | 0.0 | 0.0 | 0.00 | 1.73 | 1.73 | 95 | 1008.8 |
| 20260507121828 | 19 | 207 | 0.0 | 0.0 | 0.00 | 1.73 | 1.73 | 95 | 1009.0 |
| 20260507121323 | 19 | 205 | 0.0 | 0.0 | 0.00 | 1.73 | 1.73 | 95 | 1009.0 |
| 20260507120820 | 19 | 203 | 0.0 | 0.0 | 0.00 | 1.73 | 1.73 | 95 | 1008.9 |
| 20260507120316 | 19 | 198 | 0.0 | 0.0 | 0.00 | 1.73 | 1.73 | 95 | 1009.2 |
| 20260507115813 | 18 | 199 | 0.0 | 0.0 | 0.00 | 1.73 | 1.73 | 95 | 1009.3 |
| 20260507115308 | 18 | 174 | 0.0 | 0.0 | 0.00 | 1.73 | 1.73 | 95 | 1009.2 |
| 20260507114804 | 18 | 76 | 0.0 | 0.0 | 0.00 | 1.73 | 1.73 | 95 | 1009.2 |
| 20260507114302 | 18 | 199 | 0.0 | 0.0 | 0.00 | 1.73 | 1.73 | 95 | 1009.4 |
| 20260507113759 | 18 | 212 | 0.0 | 0.0 | 0.00 | 1.73 | 1.73 | 95 | 1009.5 |
| 20260507113256 | 18 | 212 | 0.0 | 0.0 | 0.00 | 1.73 | 1.73 | 95 | 1009.5 |
| 20260507112754 | 18 | 213 | 0.0 | 0.0 | 0.00 | 1.73 | 1.73 | 95 | 1009.5 |
| 20260507112250 | 18 | 214 | 0.0 | 1.6 | 0.00 | 1.73 | 1.73 | 95 | 1009.5 |
| 20260507111748 | 18 | 209 | 0.0 | 0.0 | 0.00 | 1.73 | 1.73 | 95 | 1009.3 |
| 20260507111244 | 18 | 204 | 0.0 | 0.0 | 0.00 | 1.73 | 1.73 | 95 | 1009.5 |
| 20260507110741 | 18 | 202 | 0.0 | 0.0 | 0.00 | 1.73 | 1.73 | 95 | 1009.6 |
| 20260507110237 | 18 | 214 | 0.0 | 0.0 | 0.00 | 1.73 | 1.73 | 95 | 1009.6 |
| 20260507105734 | 18 | 204 | 0.0 | 0.0 | 0.00 | 1.73 | 1.73 | 95 | 1009.5 |
| 20260507105230 | 18 | 202 | 0.0 | 0.0 | 0.00 | 1.73 | 1.73 | 95 | 1009.3 |
| 20260507104727 | 18 | 200 | 0.0 | 0.0 | 0.18 | 1.73 | 1.73 | 95 | 1009.2 |
| 20260507104224 | 18 | 215 | 0.0 | 0.0 | 0.18 | 1.73 | 1.73 | 95 | 1009.2 |
| 20260507103720 | 18 | 214 | 0.0 | 0.0 | 0.00 | 1.70 | 1.70 | 95 | 1009.3 |
| 20260507103217 | 18 | 216 | 0.0 | 0.0 | 0.30 | 1.70 | 1.70 | 95 | 1009.3 |
| 20260507102713 | 18 | 212 | 0.0 | 0.0 | 0.18 | 1.68 | 1.68 | 95 | 1009.5 |
| 20260507102210 | 18 | 199 | 0.0 | 0.0 | 0.00 | 1.65 | 1.65 | 95 | 1009.2 |
| 20260507101706 | 18 | 211 | 0.0 | 0.0 | 0.00 | 1.65 | 1.65 | 95 | 1009.0 |
| 20260507101201 | 18 | 211 | 0.0 | 0.0 | 0.00 | 1.65 | 1.65 | 95 | 1009.1 |
| 20260507100659 | 18 | 207 | 0.0 | 0.0 | 0.13 | 1.65 | 1.65 | 95 | 1009.3 |
| 20260507100157 | 18 | 209 | 0.0 | 0.0 | 0.13 | 1.65 | 1.65 | 95 | 1009.3 |
| 20260507095655 | 18 | 201 | 0.0 | 0.0 | 0.00 | 1.63 | 1.63 | 95 | 1008.9 |
| 20260507095151 | 18 | 201 | 0.0 | 0.0 | 0.18 | 1.63 | 1.63 | 95 | 1009.0 |
| 20260507094648 | 18 | 201 | 0.0 | 0.0 | 0.18 | 1.63 | 1.63 | 95 | 1008.8 |
| 20260507094144 | 18 | 203 | 0.0 | 0.0 | 0.00 | 1.60 | 1.60 | 95 | 1009.3 |
| 20260507093642 | 18 | 211 | 0.0 | 0.0 | 0.00 | 1.60 | 1.60 | 95 | 1009.1 |
| 20260507093141 | 18 | 210 | 0.0 | 0.0 | 0.13 | 1.60 | 1.60 | 95 | 1009.1 |
| 20260507092637 | 18 | 210 | 0.0 | 0.0 | 0.13 | 1.60 | 1.60 | 95 | 1008.9 |
| 20260507092133 | 18 | 209 | 0.0 | 0.0 | 0.00 | 1.57 | 1.57 | 95 | 1008.9 |
| 20260507091630 | 18 | 209 | 0.0 | 0.0 | 0.00 | 1.57 | 1.57 | 95 | 1009.0 |
| 20260507091126 | 18 | 209 | 0.0 | 0.0 | 0.00 | 1.57 | 1.57 | 95 | 1009.2 |
| 20260507090622 | 18 | 209 | 0.0 | 0.0 | 0.00 | 1.57 | 1.57 | 95 | 1009.1 |
| 20260507090119 | 18 | 207 | 0.0 | 0.0 | 0.00 | 1.57 | 1.57 | 95 | 1009.1 |
| 20260507085616 | 18 | 210 | 0.0 | 0.0 | 0.00 | 1.57 | 1.57 | 95 | 1009.2 |
| 20260507085113 | 18 | 210 | 0.0 | 0.0 | 0.30 | 1.57 | 1.57 | 95 | 1009.4 |
| 20260507084610 | 18 | 216 | 0.0 | 0.0 | 0.30 | 1.57 | 1.57 | 95 | 1009.5 |
| 20260507084106 | 18 | 200 | 0.0 | 0.0 | 0.61 | 1.52 | 1.52 | 95 | 1009.5 |
| 20260507083603 | 18 | 200 | 0.0 | 0.0 | 0.79 | 1.52 | 1.52 | 95 | 1009.6 |
| 20260507083100 | 18 | 200 | 0.0 | 0.0 | 0.97 | 1.52 | 1.52 | 95 | 1009.0 |
| 20260507082556 | 18 | 232 | 1.6 | 1.6 | 0.18 | 1.40 | 1.40 | 95 | 1009.7 |
| 20260507082052 | 18 | 202 | 0.0 | 0.0 | 0.00 | 1.37 | 1.37 | 95 | 1009.9 |
| 20260507081548 | 18 | 189 | 0.0 | 0.0 | 0.30 | 1.37 | 1.37 | 95 | 1009.8 |
| 20260507081046 | 18 | 205 | 0.0 | 0.0 | 0.30 | 1.37 | 1.37 | 95 | 1010.0 |
| 20260507080542 | 18 | 181 | 1.6 | 1.6 | 0.00 | 1.32 | 1.32 | 95 | 1009.7 |
| 20260507080038 | 18 | 207 | 0.0 | 0.0 | 0.13 | 1.32 | 1.32 | 95 | 1010.0 |
| 20260507075533 | 18 | 207 | 0.0 | 0.0 | 1.19 | 1.32 | 1.32 | 95 | 1009.6 |
| 20260507075030 | 18 | 183 | 4.8 | 4.8 | 1.07 | 1.30 | 1.30 | 95 | 1009.1 |
| 20260507074527 | -17 | 0.0 | 0.0 | 0.00 | 0.00 | 0.00 | 1009.7 | ||
| 20260507074026 | -17 | 0.0 | 0.0 | 0.00 | 0.00 | 0.00 | 1010.0 | ||
| 20260507073521 | -17 | 0.0 | 0.0 | 0.00 | 0.00 | 0.00 | 1010.0 | ||
| 20260507073018 | -17 | 0.0 | 0.0 | 0.00 | 0.00 | 0.00 | 1010.0 | ||
| 20260507072515 | -17 | 0.0 | 0.0 | 0.00 | 0.00 | 0.00 | 1010.1 | ||
| 20260507072012 | 18 | 210 | 0.0 | 0.0 | 0.00 | 1.12 | 1.12 | 95 | 1009.7 |
| 20260507071510 | 18 | 210 | 0.0 | 0.0 | 0.13 | 1.12 | 1.12 | 95 | 1009.9 |
| 20260507071006 | 18 | 210 | 0.0 | 0.0 | 0.13 | 1.12 | 1.12 | 95 | 1010.2 |
| 20260507070503 | 18 | 210 | 0.0 | 0.0 | 0.00 | 1.09 | 1.09 | 95 | 1010.4 |
| 20260507070000 | 18 | 211 | 0.0 | 0.0 | 0.00 | 1.09 | 1.09 | 95 | 1010.4 |
| 20260507065456 | 18 | 211 | 0.0 | 0.0 | 0.00 | 1.09 | 1.09 | 95 | 1010.6 |